FW3671 Weather Reports


Display with metric or nautical units.
time (UTC)temp
F
wind
direction
speed
MPH
gust
MPH
rain 1hr
in
rain 24hr
in
rain mn
in
humidity
%
barometer
mb
20260901043835 60 144 15.0 22.0 0.00 0.04 0.04 76 1020.6
20260901043331 60 158 15.0 20.0 0.00 0.04 0.04 77 1020.6
20260901042830 60 167 14.0 21.0 0.00 0.04 0.04 77 1020.8
20260901042325 60 153 12.0 20.0 0.00 0.04 0.04 77 1020.8
20260901041820 61 162 10.0 21.0 0.00 0.04 0.04 76 1021.0
20260901041315 61 144 17.0 21.0 0.00 0.04 0.04 76 1021.0
20260901040810 61 162 11.0 19.0 0.00 0.04 0.04 75 1021.2
20260901040309 61 145 17.0 23.0 0.00 0.04 0.04 75 1021.2
20260901035808 61 145 15.0 24.0 0.00 0.04 0.04 75 1021.2
20260901035307 61 147 11.0 19.0 0.00 0.04 0.04 75 1021.2
20260901034806 61 145 16.0 17.0 0.00 0.04 0.04 75 1021.0
20260901034302 61 145 15.0 21.0 0.00 0.04 0.04 75 1021.2
20260901033801 61 134 13.0 18.0 0.00 0.04 0.04 75 1021.2
20260901033300 61 148 9.0 19.0 0.00 0.04 0.04 75 1021.2
20260901032759 61 135 7.0 18.0 0.00 0.04 0.04 75 1021.1
20260901032254 61 144 9.0 15.0 0.00 0.04 0.04 74 1021.2
20260901031749 61 148 6.0 13.0 0.00 0.04 0.04 73 1021.0
20260901031245 62 151 15.0 18.0 0.00 0.04 0.04 72 1021.2
20260901030744 62 141 14.0 19.0 0.00 0.04 0.04 71 1020.7
20260901030239 62 175 7.0 17.0 0.00 0.04 0.04 70 1020.6
20260901025739 62 180 11.0 16.0 0.00 0.04 0.04 70 1020.3
20260901025234 61 151 5.0 16.0 0.00 0.04 0.04 72 1020.3
20260901024729 61 148 11.0 16.0 0.00 0.04 0.04 74 1020.1
20260901024228 61 169 9.0 19.0 0.00 0.04 0.04 76 1020.0
20260901023726 60 157 7.0 18.0 0.00 0.04 0.04 78 1020.0
20260901023221 60 180 7.0 13.0 0.00 0.04 0.04 79 1020.0
20260901022717 60 171 10.0 20.0 0.00 0.04 0.04 79 1020.1
20260901022217 60 152 11.0 21.0 0.00 0.04 0.04 80 1019.9
20260901021713 60 158 11.0 21.0 0.00 0.04 0.04 81 1019.9
20260901021208 60 145 19.0 20.0 0.00 0.04 0.04 82 1020.4
20260901020704 60 133 16.0 19.0 0.00 0.04 0.04 82 1020.5
20260901020159 60 144 15.0 21.0 0.00 0.04 0.04 82 1020.5
20260901015654 60 141 17.0 23.0 0.00 0.04 0.04 82 1020.6
20260901015154 60 148 13.0 22.0 0.00 0.04 0.04 82 1021.1
20260901014648 60 151 20.0 22.0 0.00 0.04 0.04 82 1020.7
20260901014145 60 159 11.0 23.0 0.00 0.04 0.04 82 1021.1
20260901013640 60 131 11.0 22.0 0.00 0.04 0.04 81 1021.2
20260901013137 60 131 19.0 20.0 0.00 0.04 0.04 81 1021.3
20260901012636 60 131 15.0 17.0 0.00 0.04 0.04 81 1021.4
20260901012131 60 159 4.0 20.0 0.00 0.04 0.04 80 1021.2
20260901011627 60 138 13.0 18.0 0.00 0.04 0.04 79 1021.7
20260901011126 60 174 6.0 17.0 0.02 0.04 0.04 80 1021.8
20260901010621 60 137 11.0 21.0 0.02 0.04 0.04 79 1022.0
20260901010115 61 159 15.0 22.0 0.00 0.04 0.04 78 1021.8
20260901005614 61 175 9.0 12.0 0.00 0.04 0.04 78 1022.1
20260901005110 61 149 12.0 17.0 0.02 0.04 0.04 78 1022.2
20260901004609 62 144 10.0 21.0 0.02 0.04 0.04 77 1022.5
20260901004104 62 148 8.0 11.0 0.00 0.03 0.03 77 1022.2
20260901003559 62 137 8.0 11.0 0.00 0.03 0.03 77 1022.3
20260901003057 62 130 9.0 16.0 0.00 0.03 0.03 77 1022.5
20260901002552 62 140 14.0 16.0 0.00 0.03 0.03 77 1022.8
20260901002047 62 159 7.0 19.0 0.00 0.03 0.03 78 1022.6
20260901001547 62 153 10.0 19.0 0.02 0.03 0.03 76 1022.8
20260901001042 63 165 11.0 21.0 0.02 0.03 0.03 76 1022.7
20260901000537 63 143 8.0 19.0 0.00 0.03 0.03 75 1022.6
20260901000034 63 140 13.0 18.0 0.00 0.03 0.03 76 1022.5
20260831235527 63 152 9.0 18.0 0.00 0.03 0.03 74 1022.7
20260831235023 63 153 14.0 25.0 0.02 0.03 0.03 73 1022.5
20260831234522 63 181 8.0 21.0 0.02 0.03 0.03 72 1022.5
20260831234018 63 162 13.0 19.0 0.00 0.02 0.02 71 1022.6
20260831233513 64 181 14.0 15.0 0.02 0.02 0.02 71 1022.5
20260831233009 64 134 11.0 17.0 0.05 0.02 0.02 68 1022.1
20260831232504 64 166 13.0 15.0 0.02 0.02 0.02 67 1021.5
20260831232000 65 148 7.0 17.0 0.05 0.02 0.02 64 1021.4
20260831231456 67 174 7.0 28.0 0.07 0.01 0.01 60 1021.0
20260831230952 69 205 11.0 24.0 0.02 0.00 0.00 60 1020.7
20260831230447 72 198 10.0 22.0 0.00 0.00 0.00 51 1020.3
20260831225946 76 184 13.0 25.0 0.00 0.00 0.00 43 1019.6
20260831225443 76 184 9.0 13.0 0.00 0.00 0.00 37 1018.9
20260831224937 76 186 10.0 13.0 0.00 0.00 0.00 38 1018.4
20260831224437 76 180 10.0 17.0 0.00 0.00 0.00 38 1017.9
20260831223932 76 179 10.0 18.0 0.00 0.00 0.00 38 1017.7
20260831223427 77 157 14.0 20.0 0.00 0.00 0.00 39 1017.6
20260831222924 77 187 6.0 23.0 0.00 0.00 0.00 40 1017.5
20260831222419 78 168 13.0 19.0 0.00 0.00 0.00 41 1017.5
20260831221914 78 168 4.0 12.0 0.00 0.00 0.00 43 1017.5
20260831221410 78 183 5.0 11.0 0.00 0.00 0.00 44 1017.3
20260831220905 78 181 7.0 15.0 0.00 0.00 0.00 47 1017.1
20260831220401 78 198 9.0 16.0 0.00 0.00 0.00 46 1017.0
20260831215855 79 160 7.0 12.0 0.00 0.00 0.00 47 1016.9
20260831215351 79 210 6.0 12.0 0.00 0.00 0.00 46 1017.0
20260831214847 80 171 7.0 13.0 0.00 0.00 0.00 46 1017.1
20260831214345 80 180 9.0 16.0 0.00 0.00 0.00 44 1017.3
20260831213845 81 180 6.0 18.0 0.00 0.00 0.00 34 1017.0
20260831213342 82 167 3.0 8.0 0.00 0.00 0.00 33 1017.6
20260831212837 82 171 5.0 15.0 0.00 0.00 0.00 32 1017.4
20260831212334 82 125 5.0 8.0 0.00 0.00 0.00 32 1017.8
20260831211832 82 138 6.0 9.0 0.00 0.00 0.00 32 1017.1
20260831211327 82 143 4.0 12.0 0.00 0.00 0.00 33 1017.4
20260831210827 82 161 6.0 10.0 0.00 0.00 0.00 34 1017.4
20260831210323 82 108 14.0 17.0 0.00 0.00 0.00 33 1017.4
20260831205823 82 138 11.0 14.0 0.00 0.00 0.00 33 1017.3
20260831205320 82 174 12.0 16.0 0.00 0.00 0.00 35 1017.4
20260831204819 82 168 8.0 12.0 0.00 0.00 0.00 33 1017.7
20260831204318 82 139 12.0 16.0 0.00 0.00 0.00 34 1017.8
20260831203818 82 180 6.0 10.0 0.00 0.00 0.00 33 1017.7
20260831203313 82 188 8.0 11.0 0.00 0.00 0.00 33 1018.1
20260831202811 82 141 14.0 14.0 0.00 0.02 0.02 33 1018.1
20260831202306 82 161 3.0 10.0 0.00 0.02 0.02 33 1017.8
20260831201801 82 131 16.0 18.0 0.00 0.02 0.02 33 1018.2
20260831201259 83 159 8.0 11.0 0.00 0.02 0.02 33 1018.2
20260831200755 82 161 6.0 15.0 0.00 0.02 0.02 34 1018.3
20260831200250 82 159 9.0 14.0 0.00 0.02 0.02 33 1018.2
20260831195745 82 115 2.0 11.0 0.00 0.02 0.02 34 1018.5
20260831195241 82 170 15.0 19.0 0.00 0.02 0.02 33 1018.5
20260831194736 82 164 10.0 18.0 0.00 0.02 0.02 32 1018.6
20260831194232 83 111 12.0 15.0 0.00 0.02 0.02 31 1018.9
20260831193730 83 121 7.0 17.0 0.00 0.02 0.02 32 1018.8
20260831193226 83 145 18.0 19.0 0.05 0.02 0.02 32 1018.5
20260831192721 83 111 10.0 17.0 0.05 0.02 0.02 31 1018.9
20260831192216 84 132 8.0 13.0 0.05 0.01 0.01 31 1018.8
20260831191712 84 123 11.0 13.0 0.02 0.00 0.00 31 1019.0
20260831191208 84 181 6.0 18.0 0.00 0.00 0.00 31 1019.0
20260831190703 83 157 16.0 17.0 0.00 0.00 0.00 33 1018.9
20260831190202 84 175 8.0 15.0 0.00 0.00 0.00 32 1019.2
20260831185658 84 193 5.0 13.0 0.00 0.00 0.00 31 1019.1
20260831185154 85 176 9.0 18.0 0.00 0.00 0.00 32 1019.1
20260831184653 85 158 14.0 17.0 0.00 0.00 0.00 33 1019.0
20260831184149 84 184 16.0 19.0 0.00 0.00 0.00 33 1019.2
20260831183648 84 161 6.0 18.0 0.00 0.00 0.00 33 1019.1
20260831183148 83 145 7.0 18.0 0.00 0.00 0.00 36 1019.5
20260831182646 83 173 8.0 18.0 0.00 0.00 0.00 35 1019.2
20260831182143 83 150 10.0 19.0 0.00 0.00 0.00 37 1019.6
20260831181637 83 159 8.0 16.0 0.00 0.00 0.00 36 1019.5
20260831181137 83 149 9.0 14.0 0.00 0.00 0.00 35 1019.6
20260831180627 84 155 12.0 19.0 0.00 0.00 0.00 35 1019.6
20260831180122 83 219 6.0 11.0 0.00 0.00 0.00 37 1019.6
20260831175622 82 164 3.0 13.0 0.00 0.00 0.00 37 1019.7
20260831175119 81 160 10.0 15.0 0.00 0.00 0.00 37 1019.7
20260831174619 81 161 10.0 20.0 0.00 0.00 0.00 38 1019.7
20260831174113 80 171 11.0 19.0 0.00 0.00 0.00 40 1019.8
20260831173612 79 134 20.0 21.0 0.00 0.00 0.00 41 1019.7
20260831173108 78 174 13.0 16.0 0.00 0.00 0.00 43 1019.7
20260831172608 78 169 10.0 16.0 0.00 0.00 0.00 43 1019.7
20260831172103 79 144 5.0 17.0 0.00 0.00 0.00 42 1019.9
20260831171558 77 182 12.0 19.0 0.00 0.00 0.00 44 1019.8
20260831171055 75 174 12.0 17.0 0.00 0.00 0.00 47 1019.7
20260831170551 74 163 14.0 17.0 0.00 0.00 0.00 48 1019.7
20260831170049 73 149 10.0 21.0 0.00 0.00 0.00 49 1019.9
20260831165548 72 178 14.0 21.0 0.00 0.00 0.00 50 1019.9
20260831165045 72 148 15.0 16.0 0.00 0.00 0.00 52 1019.8
20260831164541 72 146 10.0 23.0 0.00 0.00 0.00 51 1019.8
20260831164037 72 143 10.0 21.0 0.00 0.00 0.00 52 1019.9
20260831163531 72 168 11.0 19.0 0.00 0.00 0.00 50 1019.9
20260831163027 73 151 13.0 19.0 0.00 0.00 0.00 48 1019.8
20260831162525 74 165 13.0 19.0 0.00 0.00 0.00 47 1019.9
20260831162024 75 168 7.0 10.0 0.00 0.00 0.00 46 1019.7
20260831161520 76 150 7.0 10.0 0.00 0.00 0.00 42 1020.1
20260831161016 76 243 1.0 3.0 0.00 0.00 0.00 40 1019.8
20260831160515 77 347 2.0 3.0 0.00 0.00 0.00 39 1019.9
20260831160011 77 29 2.0 3.0 0.00 0.00 0.00 40 1019.9
20260831155506 76 55 2.0 3.0 0.00 0.00 0.00 41 1019.8
20260831155000 74 62 0.0 3.0 0.00 0.00 0.00 43 1019.7
20260831154457 73 357 3.0 4.0 0.00 0.00 0.00 46 1019.6
20260831153955 72 347 5.0 10.0 0.00 0.00 0.00 44 1019.7
20260831153451 72 286 3.0 5.0 0.00 0.00 0.00 45 1019.6
20260831152948 73 288 5.0 6.0 0.00 0.00 0.00 44 1019.7
20260831152443 73 263 2.0 2.0 0.00 0.00 0.00 45 1019.7
20260831151938 72 299 0.0 2.0 0.00 0.00 0.00 46 1019.8
20260831151437 70 358 1.0 2.0 0.00 0.00 0.00 51 1019.9
20260831150932 68 337 0.0 2.0 0.00 0.00 0.00 52 1019.7
20260831150428 66 288 2.0 3.0 0.00 0.00 0.00 54 1019.9
20260831145927 65 306 5.0 6.0 0.00 0.00 0.00 54 1019.8
20260831145424 65 284 4.0 4.0 0.00 0.00 0.00 54 1019.6
20260831144920 65 271 3.0 3.0 0.00 0.00 0.00 53 1019.8
20260831144415 65 269 2.0 2.0 0.00 0.00 0.00 54 1019.8
20260831143915 65 273 2.0 2.0 0.00 0.00 0.00 57 1020.0
20260831143405 64 163 2.0 3.0 0.00 0.00 0.00 60 1019.7
20260831142901 64 263 1.0 4.0 0.00 0.00 0.00 59 1019.9
20260831142356 64 312 4.0 6.0 0.00 0.00 0.00 58 1019.8
20260831141855 64 264 4.0 7.0 0.00 0.00 0.00 59 1019.9
20260831141350 63 202 2.0 6.0 0.00 0.00 0.00 59 1019.8
20260831140845 62 178 3.0 4.0 0.00 0.00 0.00 65 1019.8
20260831140339 62 38 2.0 2.0 0.00 0.00 0.00 65 1019.7
20260831135838 62 102 2.0 2.0 0.00 0.00 0.00 63 1020.0
20260831135333 62 127 2.0 4.0 0.00 0.00 0.00 63 1019.8
20260831134828 62 173 3.0 4.0 0.00 0.00 0.00 62 1019.7
20260831134325 62 206 2.0 3.0 0.00 0.00 0.00 62 1019.5
20260831133824 62 208 3.0 4.0 0.00 0.00 0.00 61 1019.7
20260831133324 62 113 3.0 3.0 0.00 0.00 0.00 61 1019.6
20260831132820 63 213 3.0 4.0 0.00 0.00 0.00 60 1019.5
20260831132315 63 212 4.0 4.0 0.00 0.00 0.00 60 1019.3
20260831131814 63 136 2.0 4.0 0.00 0.00 0.00 57 1019.2
20260831131311 64 17 5.0 5.0 0.00 0.00 0.00 57 1018.9
20260831130811 64 192 2.0 6.0 0.00 0.00 0.00 57 1019.1
20260831130307 64 104 7.0 10.0 0.00 0.00 0.00 57 1019.3
20260831125806 63 123 10.0 13.0 0.00 0.00 0.00 57 1019.2
20260831125302 63 135 8.0 10.0 0.00 0.00 0.00 58 1019.2
20260831124801 63 107 9.0 15.0 0.00 0.00 0.00 58 1019.3
20260831124258 63 144 7.0 12.0 0.00 0.00 0.00 59 1019.3
20260831123757 63 124 11.0 13.0 0.00 0.00 0.00 59 1019.3
20260831123256 64 129 8.0 13.0 0.00 0.00 0.00 59 1019.0
20260831122751 64 118 8.0 13.0 0.00 0.00 0.00 59 1019.1
20260831122247 64 122 10.0 14.0 0.00 0.00 0.00 60 1019.2
20260831121746 64 104 6.0 11.0 0.00 0.00 0.00 61 1019.2
20260831121243 64 100 8.0 15.0 0.00 0.00 0.00 61 1019.3
20260831120738 64 130 7.0 10.0 0.00 0.00 0.00 61 1019.3
20260831120232 64 159 4.0 11.0 0.00 0.00 0.00 60 1019.3
20260831115728 64 99 8.0 12.0 0.00 0.00 0.00 60 1019.5
20260831115224 64 125 10.0 15.0 0.00 0.00 0.00 61 1019.3
20260831114723 63 115 10.0 10.0 0.00 0.00 0.00 63 1019.2
20260831114223 63 140 5.0 11.0 0.00 0.00 0.00 63 1019.5
20260831113718 63 85 7.0 9.0 0.00 0.00 0.00 64 1019.6
20260831113213 63 132 5.0 9.0 0.00 0.00 0.00 63 1019.3
20260831112712 63 161 3.0 14.0 0.00 0.00 0.00 63 1019.6
20260831112208 63 106 7.0 19.0 0.00 0.00 0.00 63 1019.6
20260831111703 62 115 15.0 22.0 0.00 0.00 0.00 63 1019.6
20260831111159 62 100 12.0 16.0 0.00 0.00 0.00 63 1019.5
20260831110654 63 109 6.0 13.0 0.00 0.00 0.00 63 1019.6
20260831110149 63 165 9.0 10.0 0.00 0.00 0.00 63 1019.2
20260831105648 63 116 12.0 15.0 0.00 0.00 0.00 62 1019.5
20260831105144 63 126 8.0 9.0 0.00 0.00 0.00 59 1019.6
20260831104639 63 124 7.0 13.0 0.00 0.00 0.00 56 1019.6
20260831104135 62 127 13.0 17.0 0.00 0.00 0.00 55 1019.3
20260831103630 63 126 10.0 10.0 0.00 0.00 0.00 57 1019.5
20260831103126 62 136 9.0 11.0 0.00 0.00 0.00 57 1019.2
20260831102626 62 134 10.0 13.0 0.00 0.00 0.00 57 1019.3
20260831102121 62 132 8.0 10.0 0.00 0.00 0.00 60 1019.5
20260831101621 62 139 9.0 9.0 0.00 0.00 0.00 60 1019.2
20260831101117 62 154 5.0 8.0 0.00 0.00 0.00 60 1019.2
20260831100613 63 142 6.0 10.0 0.00 0.00 0.00 59 1019.1
20260831100109 63 133 6.0 10.0 0.00 0.00 0.00 59 1019.1
20260831095607 64 145 4.0 7.0 0.00 0.00 0.00 58 1019.1
20260831095107 64 145 6.0 11.0 0.00 0.00 0.00 58 1019.0
20260831094603 64 123 7.0 11.0 0.00 0.00 0.00 58 1018.9
20260831094059 64 127 10.0 11.0 0.00 0.00 0.00 58 1019.0
20260831093554 64 141 4.0 9.0 0.00 0.00 0.00 57 1018.9
20260831093050 64 137 9.0 14.0 0.00 0.00 0.00 57 1018.9
20260831092546 64 124 6.0 13.0 0.00 0.00 0.00 57 1018.9
20260831092042 64 114 11.0 14.0 0.00 0.00 0.00 56 1018.8
20260831091542 64 127 8.0 13.0 0.00 0.00 0.00 55 1018.9
20260831091037 65 121 10.0 14.0 0.00 0.00 0.00 53 1018.8
20260831090532 65 135 7.0 11.0 0.00 0.00 0.00 53 1018.9
20260831090029 64 136 10.0 15.0 0.00 0.00 0.00 53 1019.0
20260831085529 65 144 6.0 9.0 0.00 0.00 0.00 53 1019.1
20260831085024 65 142 7.0 9.0 0.00 0.00 0.00 52 1019.0
20260831084520 65 159 7.0 13.0 0.00 0.00 0.00 52 1019.0
20260831084017 65 129 10.0 12.0 0.00 0.00 0.00 51 1018.8
20260831083517 65 124 7.0 10.0 0.00 0.00 0.00 51 1018.8
20260831083012 64 114 10.0 11.0 0.00 0.00 0.00 52 1019.0
20260831082511 64 115 9.0 10.0 0.00 0.00 0.00 53 1018.9
20260831082007 64 116 6.0 8.0 0.00 0.00 0.00 55 1019.0
20260831081503 64 116 7.0 9.0 0.00 0.00 0.00 55 1018.9
20260831080959 64 120 4.0 10.0 0.00 0.00 0.00 55 1019.0
20260831080458 64 135 5.0 8.0 0.00 0.00 0.00 56 1019.0
20260831075954 65 135 5.0 7.0 0.00 0.00 0.00 54 1018.9
20260831075449 65 131 5.0 5.0 0.00 0.00 0.00 54 1019.2
20260831074945 64 111 8.0 10.0 0.00 0.00 0.00 55 1019.1
20260831074444 64 72 3.0 5.0 0.00 0.00 0.00 57 1019.0
20260831073939 64 141 0.0 2.0 0.00 0.00 0.00 57 1019.1
20260831073438 64 170 2.0 3.0 0.00 0.00 0.00 55 1019.2
20260831072932 65 103 2.0 3.0 0.00 0.00 0.00 55 1019.3
20260831072429 65 106 0.0 5.0 0.00 0.00 0.00 54 1019.3
20260831071925 66 21 0.0 4.0 0.00 0.00 0.00 53 1019.3
20260831071424 66 101 9.0 13.0 0.00 0.00 0.00 53 1019.3
20260831070924 66 110 12.0 14.0 0.00 0.00 0.00 52 1019.3
20260831070423 65 108 8.0 12.0 0.00 0.00 0.00 53 1019.5
20260831065922 65 130 9.0 16.0 0.00 0.00 0.00 53 1019.3
20260831065420 65 130 11.0 15.0 0.00 0.00 0.00 53 1019.6
20260831064916 65 134 9.0 12.0 0.00 0.00 0.00 53 1019.2
20260831064411 66 124 9.0 12.0 0.00 0.00 0.00 53 1019.5
20260831063907 66 130 9.0 12.0 0.00 0.00 0.00 53 1019.5
20260831063402 65 138 9.0 11.0 0.00 0.00 0.00 53 1019.5
20260831062901 65 128 9.0 10.0 0.00 0.00 0.00 55 1019.2
20260831062357 65 133 6.0 11.0 0.00 0.00 0.00 54 1019.5
20260831061855 66 116 10.0 15.0 0.00 0.00 0.00 56 1019.3
20260831061355 66 116 13.0 14.0 0.00 0.00 0.00 55 1019.1
20260831060851 66 106 10.0 13.0 0.00 0.00 0.00 55 1019.3
20260831060351 66 124 14.0 15.0 0.00 0.00 0.00 53 1019.3
20260831055851 66 119 11.0 15.0 0.00 0.00 0.00 54 1019.6
20260831055346 66 122 9.0 14.0 0.00 0.00 0.00 54 1019.2
20260831054841 66 125 9.0 12.0 0.00 0.00 0.00 55 1019.3
20260831054337 66 121 6.0 9.0 0.00 0.00 0.00 56 1019.5
20260831053835 65 135 6.0 9.0 0.00 0.00 0.00 56 1019.5
20260831053334 66 45 4.0 8.0 0.00 0.00 0.00 55 1019.6
20260831052829 66 162 0.0 4.0 0.00 0.00 0.00 54 1019.6
20260831052328 67 160 4.0 9.0 0.00 0.00 0.00 54 1019.5
20260831051826 67 176 7.0 8.0 0.00 0.00 0.00 54 1019.5
20260831051325 67 168 7.0 12.0 0.00 0.00 0.00 54 1019.7
20260831050820 67 155 10.0 11.0 0.00 0.00 0.00 54 1019.5
20260831050319 66 139 8.0 12.0 0.00 0.00 0.00 56 1019.5
20260831045815 66 146 5.0 8.0 0.00 0.00 0.00 55 1019.5
20260831045314 66 156 7.0 11.0 0.00 0.00 0.00 55 1019.2
20260831044809 66 134 8.0 10.0 0.00 0.00 0.00 53 1019.3
20260831044304 66 126 11.0 16.0 0.00 0.00 0.00 53 1019.5